Terminal Aerodrome Forecast
Issued by NWS

Home | Current Version | Previous Version | Text Only | Print | Product List | Glossary On
Versions: 1 2 3 4 5 6 7 8 9 10 11 12 13 14 15 16 17 18 19 20 21 22 23 24 25 26 27 28 29 30 31 32 33 34 35 36 37 38 39 40 41 42 43 44 45 46 47 48 49 50
000
FTUS44 KHGX 220456 AAD
TAFIAH
TAF AMD
KIAH 220456Z 2205/2306 14008KT P6SM OVC008
     FM220700 17006KT P6SM BKN006 OVC015 WS020/23035KT
     FM221500 20009KT P6SM SCT007 BKN015
     FM221800 22011G21KT P6SM BKN015 BKN025
     FM222100 22010G20KT P6SM SCT025 OVC250
     FM230300 24006KT P6SM FEW008 SCT015 OVC250=

USA.gov is the U.S. government's official web portal to all federal, state and local government web resources and services.